#timestamp,LO_Frequency,Hit,StdDev 
1640073615.5,286047002.2,N
1640073635.3,286047002.6,N
1640073655.1,286047002.4,N
1640073675.9,286047002.5,N
1640073695.7,286047002.8,N
1640073715.5,286046999.8,N
1640073735.4,286047002.8,N
1640073755.2,286047002.6,N
1640073775.0,286047002.0,N
1640073776.0,286047002.0,N
1640073795.8,286047002.0,N
1640073815.6,286047001.6,N
1640073835.5,286047002.1,N
1640073855.3,286047001.5,N
1640073875.1,286047004.0,Y
1640073895.9,286047002.5,P
1640073915.7,286047000.1,N
1640073935.5,286047002.8,N
1640073955.4,286047002.1,N
1640073975.2,286047002.7,N
1640073995.0,286047002.6,N
1640073995.9,286047002.6,N
1640074015.8,286047002.3,N
1640074035.6,286047000.4,N
1640074055.5,286047000.0,N
1640074075.3,286047000.0,N
1640074095.1,286047000.8,N
1640074115.9,286047001.2,N
1640074135.7,286047000.9,N
1640074155.5,286047002.8,N
1640074175.4,286047003.8,Y
1640074195.2,286047000.1,P
1640074215.0,286046998.2,N
1640074215.9,286046998.2,N
1640074235.8,286046998.4,N
1640074255.6,286046998.4,N
1640074275.5,286046998.8,N
1640074295.3,286046998.3,N
1640074315.1,286047001.2,N
1640074335.9,286047001.0,N
1640074355.7,286047000.9,N
1640074375.5,286047000.9,N
1640074395.4,286046998.1,N
1640074415.2,286047000.6,N
1640074435.0,286046998.3,N
1640074435.9,286046998.3,N
1640074455.8,286046999.0,N
1640074475.6,286046998.3,N
1640074495.4,286046998.7,N
1640074515.3,286046998.4,N
1640074535.1,286046998.6,N
1640074555.8,286047001.2,N
1640074575.7,286046998.2,N
1640074595.5,286047001.0,N
1640074615.4,286047000.4,N
1640074635.2,286047000.5,N
1640074655.0,286047000.4,N
1640074655.9,286047000.4,N
1640074675.8,286047000.9,N
1640074695.6,286046998.5,N
1640074715.4,286046998.4,N
1640074735.3,286046998.7,N
1640074755.1,286046998.5,N
1640074775.8,286046998.2,N
1640074795.7,286047000.9,N
1640074815.5,286047000.7,N
1640074835.3,286047000.7,N
1640074855.2,286047001.0,N
1640074875.0,286047000.5,N
1640074875.9,286047000.5,N
1640074895.8,286047000.2,N
1640074915.6,286047002.8,N
1640074935.4,286047002.7,N
1640074955.3,286047000.4,N
1640074975.1,286047000.9,N
1640074995.8,286047000.2,N
1640075015.7,286046999.7,N
1640075035.5,286047000.1,N
1640075055.3,286047000.1,N
1640075075.2,286046999.9,N
1640075095.0,286046999.9,N
1640075095.9,286046999.9,N
1640075115.8,286046999.9,N
1640075135.6,286047000.1,N
1640075155.4,286046999.7,N
1640075175.3,286047000.3,N
1640075195.1,286047000.1,N
1640075196.0,286047000.1,N
1640075215.8,286047000.2,N
1640075235.7,286046999.9,N
1640075255.5,286047000.3,N
1640075275.3,286046999.7,N
1640075295.2,286046999.7,N
1640075315.0,286046999.8,N
1640075315.9,286046999.8,N
1640075335.8,286047000.2,N
1640075355.6,286047002.8,Y
1640075375.4,286047002.4,P
1640075395.3,286047001.0,N
1640075415.1,286047000.3,N
1640075416.0,286047000.3,N
1640075435.8,286047000.3,N
1640075455.7,286047000.6,N
1640075475.5,286047001.0,N
1640075495.3,286047000.1,N
1640075515.2,286047000.2,N
1640075535.0,286047002.1,Y
1640075535.9,286047002.1,P
1640075555.8,286046999.8,N
1640075575.6,286047002.7,N
1640075595.4,286047002.8,N
1640075615.3,286047000.0,N
1640075635.1,286047000.5,N
1640075636.0,286047000.5,N
1640075655.8,286046998.5,N
1640075675.7,286047000.5,N
1640075695.5,286047000.9,N
1640075715.3,286047000.7,N
1640075735.2,286047001.2,N
1640075755.0,286046998.1,N
1640075755.9,286046998.1,N
1640075775.8,286047001.1,N
1640075795.6,286047000.7,N
1640075815.4,286047000.6,N
1640075835.3,286047000.2,N
1640075855.1,286047000.3,N
1640075856.0,286047000.3,N
1640075875.8,286047000.5,N
1640075895.7,286047001.0,N
1640075915.5,286047000.7,N
1640075935.3,286047000.9,N
1640075955.2,286046998.1,N
1640075975.0,286046998.3,N
1640075975.9,286046998.3,N
1640075995.7,286046998.6,N
1640076015.6,286047000.8,N
1640076035.4,286047000.9,N
1640076055.3,286047001.1,N
1640076075.1,286047000.8,N
1640076076.0,286047000.8,N
1640076095.8,286046998.1,N
1640076115.7,286046998.2,N
1640076135.5,286046998.7,N
1640076155.3,286046998.3,N
1640076175.2,286046998.4,N
1640076195.0,286047000.6,N
1640076195.9,286047000.6,N
1640076215.7,286047000.7,N
1640076235.6,286046998.2,N
1640076255.4,286046998.5,N
1640076275.3,286046998.8,N
1640076295.1,286046998.8,N
1640076296.0,286046998.8,N
1640076315.8,286047001.1,N
1640076335.7,286047000.6,N
1640076355.5,286047000.3,N
1640076375.3,286046999.7,N
1640076395.2,286047002.4,N
1640076415.0,286047002.2,N
1640076415.9,286047002.2,N
1640076435.7,286047002.4,N
1640076455.6,286047002.4,N
1640076475.4,286047000.0,N
1640076495.2,286047000.0,N
1640076515.1,286047002.8,N
1640076516.0,286047002.8,N
1640076535.8,286046999.8,N
1640076555.7,286047001.9,N
1640076575.5,286047002.1,N
1640076595.3,286047001.3,N
1640076615.2,286047002.2,N
1640076635.9,286047001.7,N
1640076655.7,286047003.7,N
1640076675.6,286047001.3,N
1640076695.4,286047003.6,N
1640076715.2,286047003.0,N
1640076735.1,286047003.9,N
1640076736.0,286047003.9,N
1640076755.8,286047001.9,N
1640076775.7,286047002.1,N
1640076795.5,286047002.0,N
1640076815.3,286047002.7,N
1640076835.2,286047002.6,N
1640076855.9,286047002.1,N
1640076875.7,286047001.9,N
1640076895.6,286047004.0,Y
1640076915.4,286047000.8,P
1640076935.2,286046998.1,P
1640076955.1,286046998.5,N
1640076956.0,286046998.5,N
1640076975.8,286046998.4,N
1640076995.7,286046998.6,N
1640077015.5,286047000.8,N
1640077035.3,286047002.5,N
1640077055.2,286047002.4,N
1640077075.9,286047000.1,N
1640077095.7,286047000.4,N
1640077115.6,286046998.1,N
1640077135.4,286047001.2,N
1640077155.2,286047000.0,N
1640077175.1,286047002.2,N
1640077176.0,286047002.2,N
1640077195.8,286047002.8,N
